This is the latest recevied weather packets stored in our database for station/object EA4BCR. If no packets are shown the sender has not sent any weather packets the latest 10 day(s).
| Time | Temp. | Humidity | Pressure | Rain* | Wind** | Luminosity | Snow |
|---|---|---|---|---|---|---|---|
| 1787732413 | 22.22° C | 60% | 1011.1 hPa | - | - | - | - |
| 1787731813 | 22.22° C | 60% | 1011.4 hPa | - | - | - | - |
| 1787731213 | 21.11° C | 65% | 1011.9 hPa | - | - | - | - |
| 1787730613 | 20° C | 62% | 1012 hPa | - | - | - | - |
| 1787730013 | 19.44° C | 57% | 1012.1 hPa | - | - | - | - |
| 1787729413 | 19.44° C | 59% | 1012.3 hPa | - | - | - | - |
| 1787728813 | 18.89° C | 63% | 1012.7 hPa | - | - | - | - |
| 1787728213 | 18.33° C | 67% | 1012.9 hPa | - | - | - | - |
| 1787727613 | 18.89° C | 69% | 1012.8 hPa | - | - | - | - |
| 1787727013 | 18.33° C | 63% | 1012.9 hPa | - | - | - | - |
| 1787726413 | 18.33° C | 63% | 1012.9 hPa | - | - | - | - |
| 1787725813 | 17.78° C | 60% | 1012.8 hPa | - | - | - | - |
| 1787725213 | 17.22° C | 59% | 1013 hPa | - | - | - | - |
| 1787724613 | 17.22° C | 59% | 1012.5 hPa | - | - | - | - |
| 1787724013 | 16.67° C | 61% | 1013 hPa | - | - | - | - |
| 1787723413 | 16.67° C | 60% | 1012.8 hPa | - | - | - | - |
| 1787722813 | 16.11° C | 67% | 1012.6 hPa | - | - | - | - |
| 1787722213 | 16.11° C | 63% | 1013 hPa | - | - | - | - |
| 1787721613 | 15.56° C | 63% | 1013 hPa | - | - | - | - |
| 1787721014 | 15° C | 63% | 1012.4 hPa | - | - | - | - |
| 1787720413 | 16.11° C | 58% | 1012.8 hPa | - | - | - | - |
| 1787719813 | 16.67° C | 59% | 1012.4 hPa | - | - | - | - |
| 1787719213 | 16.11° C | 57% | 1013.4 hPa | - | - | - | - |
| 1787718613 | 16.67° C | 58% | 1013.1 hPa | - | - | - | - |
| 1787718013 | 16.67° C | 58% | 1012.8 hPa | - | - | - | - |
* Rain since midnight (hover to see other rain measurements)
** Current wind speed in m/s (hover to see current wind gust speed)